Lapse_Rate
6.1 6.8 6.0 5.2 5.1 5.4 5.9 6.1 5.9 6.7 6.7 6.4 6.4 6.4 6.3 6.2 6.1 6.2 7.0 7.1 6.9 6.6 7.0 6.8 7.0 7.3 7.0 6.7 6.3 5.8 6.0 6.6 6.5 6.0 6.2 6.7 7.4 7.4 7.3 6.5 7.6 8.7 7.9
5.8 6.6 5.7 4.9 4.8 4.9 5.2 5.5 5.3 5.6 6.1 6.1 6.6 6.7 6.5 6.5 6.9 7.0 7.7 7.5 7.4 7.1 7.1 7.1 7.4 7.5 6.8 6.5 6.0 5.6 6.3 6.2 6.3 5.7 6.4 6.5 6.9 7.3 7.4 7.0 8.4 8.5 7.6
5.8 6.5 5.8 5.2 5.0 4.9 4.8 4.7 4.8 5.3 5.7 6.4 6.9 7.2 7.4 7.0 7.2 6.9 8.0 7.8 7.5 7.5 7.4 7.5 7.2 7.3 6.6 6.3 6.0 6.2 6.3 6.3 5.9 5.9 7.0 8.4 7.6 7.6 7.7 8.1 8.6 8.1 8.3
5.9 6.4 5.9 5.6 5.3 5.0 4.9 4.9 4.9 5.4 6.3 6.4 6.5 7.5 7.5 7.5 7.5 7.2 7.6 8.3 8.2 7.3 7.7 7.3 6.8 6.6 6.4 6.0 6.4 6.5 6.3 6.2 5.8 6.8 7.8 9.1 9.4 8.8 9.1 9.0 8.3 8.0 8.5
6.0 6.0 5.7 5.4 5.2 5.1 5.0 5.1 5.2 5.6 6.5 6.8 7.1 7.2 7.6 8.0 7.8 7.8 8.9 8.5 7.8 7.4 7.5 7.3 6.9 6.6 6.2 5.8 6.4 6.3 6.1 5.6 6.0 7.2 7.7 8.8 9.2 9.3 9.2 7.3 8.2 9.1 9.0
5.9 6.1 5.4 5.5 5.3 5.1 4.9 5.1 5.3 5.7 6.8 7.3 7.3 6.4 7.0 7.6 7.7 7.3 6.8 6.5 7.4 7.2 7.1 7.2 7.0 6.3 5.9 5.7 6.3 6.3 5.9 5.9 6.7 7.0 7.9 9.3 9.0 8.9 9.1 7.8 7.7 7.3 7.5
6.1 6.0 5.7 5.5 5.2 5.1 5.2 5.4 5.6 5.9 6.3 6.3 6.4 7.0 6.9 7.0 7.4 7.3 6.4 6.4 6.8 6.8 7.2 7.2 7.2 6.7 6.4 6.1 6.1 5.7 5.2 5.2 6.9 7.2 8.0 8.8 9.1 8.5 8.9 7.0 6.3 6.8 6.7
6.4 6.3 6.0 5.4 5.2 5.1 5.2 5.3 5.6 5.6 5.7 5.8 6.0 6.8 6.9 6.9 7.6 7.8 7.0 6.8 6.7 7.1 7.3 7.4 7.2 6.9 6.4 6.3 5.7 5.5 5.3 5.9 7.0 7.4 7.8 9.1 9.1 8.7 8.9 7.5 6.8 7.0 7.3
6.3 6.3 5.9 5.7 5.2 5.3 5.2 5.2 5.6 5.6 5.9 6.1 6.3 6.3 6.8 6.8 7.4 8.0 7.6 7.1 6.7 7.0 7.5 7.3 7.1 7.2 6.8 6.3 5.9 5.9 5.4 5.5 6.9 7.4 8.2 8.2 8.1 9.1 8.8 7.8 8.0 7.7 7.4
6.1 6.2 5.7 5.5 5.5 5.6 5.6 5.3 5.6 5.8 5.7 5.3 5.7 5.5 6.4 6.8 7.5 8.1 8.0 7.2 7.2 7.6 7.7 7.6 7.3 7.8 7.3 6.3 5.9 6.3 5.7 6.2 7.4 7.6 8.3 8.6 7.9 8.6 8.9 8.3 8.2 8.0 7.7
5.5 6.1 5.8 5.6 5.8 5.4 5.4 5.5 5.5 5.8 5.5 5.0 4.9 5.3 5.8 6.8 7.4 7.9 7.9 8.0 7.7 7.9 8.1 7.5 7.5 7.3 6.6 6.1 5.7 5.8 6.1 7.1 7.3 7.4 8.0 8.1 8.7 8.3 8.2 8.1 8.5 9.0 8.0
5.7 5.7 5.6 5.8 5.6 5.6 5.7 5.5 5.9 5.8 5.7 5.2 4.6 4.8 5.4 5.8 6.6 7.0 8.5 8.5 8.2 8.0 8.6 8.1 6.8 6.9 6.7 7.0 6.2 5.7 6.1 6.8 7.1 7.6 8.4 8.5 8.5 8.5 8.1 7.9 8.3 8.6 8.3
6.2 5.8 5.3 5.4 5.6 5.8 5.6 5.2 5.3 5.3 5.1 5.0 4.6 4.7 5.0 5.3 5.7 6.4 7.8 8.1 8.0 7.8 8.0 7.6 7.3 7.0 6.9 7.1 6.6 6.6 6.7 6.8 7.5 8.1 8.3 7.5 8.3 8.6 8.5 8.4 8.3 8.3 8.0
6.3 5.8 5.8 5.2 5.3 5.7 5.3 5.3 5.1 4.4 4.8 4.9 4.2 4.3 4.6 4.7 5.2 5.5 6.1 7.5 7.0 7.1 7.1 7.4 7.1 6.7 6.6 6.7 6.9 7.0 7.0 7.4 8.3 9.0 8.7 8.3 8.3 8.5 8.2 8.3 8.2 8.4 8.4
6.3 5.4 5.3 4.6 4.8 4.7 5.1 4.9 4.6 4.2 4.4 4.2 4.0 4.3 4.2 3.9 4.5 4.8 5.4 6.5 6.9 6.4 6.9 6.8 7.1 6.7 6.8 6.5 6.5 7.0 6.9 7.3 8.1 7.8 8.3 8.0 8.5 8.9 8.8 9.0 8.2 8.6 8.7
5.7 4.9 5.0 4.7 4.5 4.5 4.6 4.9 4.3 4.0 3.7 3.7 3.5 4.1 4.1 4.1 3.9 4.2 4.8 5.4 6.1 6.3 6.1 6.6 7.0 6.7 6.3 6.7 6.6 6.7 6.7 7.1 7.9 7.8 8.4 8.1 8.1 7.1 8.2 8.7 9.1 8.8 8.4
5.5 4.7 4.2 4.9 4.2 4.5 4.6 4.6 4.1 3.8 3.7 3.9 3.6 3.7 4.2 4.1 4.1 3.8 4.2 4.8 5.5 5.3 5.6 5.8 6.0 6.1 6.2 6.2 6.6 6.7 7.2 8.0 8.6 8.4 7.9 7.9 8.2 7.8 8.3 7.9 8.3 9.0 8.4
4.7 4.5 4.1 4.5 4.3 4.1 4.3 4.5 4.1 3.8 3.5 3.8 3.8 3.8 4.3 4.3 4.1 3.9 4.0 4.6 4.6 4.9 5.5 6.2 6.4 6.4 6.3 6.8 6.6 7.0 7.5 7.8 8.9 9.1 8.8 8.2 7.8 7.1 7.8 8.2 7.8 8.5 8.8
4.4 4.6 4.4 4.3 4.2 4.3 4.0 4.2 4.2 4.1 3.6 3.6 3.7 3.7 4.6 4.9 4.3 4.4 4.2 3.8 3.9 4.3 4.7 5.7 5.9 6.6 6.3 6.1 6.3 6.5 6.6 7.8 8.5 8.4 8.9 8.9 8.5 7.7 7.4 7.8 7.4 7.4 7.9
3.7 3.7 4.1 4.6 4.5 4.1 4.0 3.9 4.0 3.8 4.0 3.6 4.0 3.8 4.4 5.3 4.2 3.9 3.7 3.2 3.2 4.1 4.4 5.3 5.9 5.2 6.1 6.3 6.0 5.8 5.9 6.5 6.7 8.4 8.5 8.0 7.8 7.7 7.8 7.6 7.0 7.1 7.8
0.3 3.1 4.2 3.9 4.1 3.7 3.8 3.9 4.3 4.5 4.0 4.0 4.3 4.3 4.4 4.9 3.7 4.0 3.8 3.1 2.8 3.9 3.7 4.6 5.0 5.4 4.9 5.1 6.2 6.1 6.1 5.9 6.3 6.4 6.5 7.4 7.4 6.9 6.5 5.8 5.9 6.0 6.4
-0.7 0.2 1.4 2.1 2.9 3.6 3.9 4.2 4.1 4.5 3.8 3.8 4.2 4.0 4.1 3.8 3.8 3.8 3.8 3.5 3.5 3.5 3.8 4.0 4.1 3.9 4.0 4.6 6.3 6.4 7.0 7.1 6.3 5.6 5.5 6.1 6.5 6.0 6.0 5.7 5.5 5.2 5.2
-1.3 -0.7 0.5 0.8 1.6 2.3 2.8 2.9 2.6 2.9 2.7 3.2 3.8 4.0 4.2 4.3 3.9 3.9 3.9 3.8 3.6 4.0 3.8 3.5 3.7 4.8 3.7 3.7 4.5 6.1 5.7 7.0 5.2 4.7 5.1 5.3 5.3 5.1 5.2 5.0 5.0 5.0 5.0
-2.1 -1.1 -0.7 -0.7 0.1 0.6 2.1 3.5 3.6 4.8 4.7 4.6 4.0 4.0 3.7 3.9 3.7 4.0 3.5 3.7 3.5 3.5 3.6 3.9 4.9 4.6 5.7 4.2 4.0 3.8 4.3 5.5 6.4 6.5 4.8 4.9 4.7 3.6 4.0 3.9 4.8 4.6 4.5
-2.2 -2.6 -1.6 -1.4 -1.6 -0.8 0.7 2.8 3.9 4.3 4.0 3.7 3.9 3.9 3.4 3.6 3.5 3.8 3.9 4.3 3.7 4.0 3.9 5.1 4.9 4.8 5.5 4.2 4.5 4.1 4.5 3.9 4.7 6.0 7.1 6.0 3.9 5.3 5.0 4.2 3.6 3.7 4.2
-1.4 -1.8 -1.6 -2.3 -2.4 -2.1 -1.0 0.3 1.8 2.9 3.2 3.5 2.8 4.2 4.0 3.7 3.9 3.7 3.5 3.8 4.3 4.6 4.6 4.4 4.1 4.7 4.7 4.5 4.8 5.0 5.5 5.7 5.7 4.5 4.3 4.0 5.4 6.0 5.1 4.9 4.7 4.3 3.4
Wind_Speed
16 23 24 23 23 23 22 22 24 24 22 22 22 22 21 20 19 18 18 18 18 21 21 24 26 27 26 25 23 23 22 22 24 27 27 27 26 25 27 26 24 23 23
20 26 26 25 25 24 24 23 24 23 23 23 24 23 21 20 18 17 18 21 22 21 23 23 24 24 24 23 22 24 24 26 25 24 25 25 25 24 24 21 20 19 20
22 27 27 26 26 25 24 24 24 23 23 23 25 23 21 17 16 17 18 20 20 20 22 23 21 22 22 23 23 26 25 24 22 21 19 21 22 22 21 21 20 19 19
23 26 26 27 27 26 25 24 23 22 23 24 25 23 21 20 18 18 21 21 20 19 23 22 20 20 21 21 22 24 25 24 23 23 21 19 20 20 20 19 17 17 17
22 26 25 28 27 26 25 24 23 22 24 24 23 24 19 21 18 19 20 19 18 19 19 20 20 20 20 19 22 26 25 23 22 21 21 16 16 19 17 18 16 16 18
21 27 27 28 28 26 25 24 23 22 21 20 21 21 18 22 22 20 21 20 18 16 17 18 20 21 20 20 22 24 23 20 22 22 20 17 17 18 18 15 15 16 16
18 24 26 27 28 26 26 24 23 21 21 22 21 19 17 23 25 23 21 18 15 14 15 18 21 21 21 21 23 24 23 20 21 19 19 17 17 18 16 16 19 15 15
17 23 25 26 27 26 26 24 24 23 23 23 22 20 20 23 23 23 19 18 15 19 22 23 24 24 24 23 25 23 20 20 20 20 18 17 15 16 15 16 22 23 24
20 18 21 23 24 24 25 25 24 24 23 22 22 21 20 21 20 23 20 18 16 19 23 23 23 24 25 23 23 21 21 20 19 17 17 16 17 16 17 16 20 20 23
14 15 18 20 22 21 22 24 24 23 22 21 21 23 22 22 21 21 21 19 19 21 24 21 21 24 22 21 20 21 21 18 20 17 15 16 17 16 16 17 18 18 19
13 14 16 17 19 18 19 23 24 24 23 23 23 24 20 17 18 17 18 19 19 19 20 19 22 22 21 20 18 18 16 16 16 15 15 18 18 17 16 17 16 16 15
16 14 13 15 17 19 17 22 21 19 18 18 18 18 16 15 15 15 16 18 17 19 18 17 19 21 16 13 14 15 13 14 13 12 15 16 16 16 17 16 16 14 12
17 12 14 13 18 17 15 17 16 15 14 15 17 16 16 14 12 12 11 12 12 16 13 13 14 12 13 12 12 11 11 11 11 13 15 14 14 16 14 14 15 15 14
18 14 14 14 14 16 15 14 16 14 14 14 14 16 15 12 11 12 9 9 10 10 12 11 10 11 12 12 12 12 11 11 11 11 13 13 15 15 15 14 13 14 12
15 14 14 14 13 14 14 14 15 14 13 14 14 15 15 14 11 11 10 8 10 11 13 11 11 10 11 11 10 11 11 11 11 10 12 12 11 10 12 13 14 13 15
15 14 13 14 14 18 10 15 13 15 15 14 13 15 16 14 13 12 10 10 11 10 10 11 10 9 9 10 10 10 10 10 11 9 9 9 11 14 13 12 12 13 13
15 13 13 13 16 15 12 15 13 15 16 15 13 15 15 15 14 13 11 9 9 10 12 11 10 9 9 8 9 9 9 9 11 9 8 8 9 12 13 11 12 12 10
13 14 12 11 16 15 12 14 12 14 14 14 15 14 15 15 15 13 11 10 10 12 12 11 9 5 5 5 5 7 7 7 12 8 6 7 8 8 11 13 12 10 8
15 15 14 15 15 15 14 14 13 15 13 14 14 14 16 15 15 14 12 11 12 12 12 11 5 5 5 5 5 4 3 5 11 10 5 6 6 7 6 10 9 10 9
15 18 18 14 16 13 10 11 10 9 12 14 14 15 17 14 15 12 11 11 12 11 10 9 6 4 4 6 5 3 2 2 1 6 8 7 6 4 3 4 5 5 8
6 11 13 12 14 10 8 9 7 6 6 7 12 17 18 15 16 14 11 12 10 6 6 9 5 5 4 4 5 2 1 1 1 1 1 3 6 6 5 3 2 1 2
8 7 7 8 10 9 8 7 4 7 4 8 13 14 16 15 16 14 13 11 12 6 7 7 5 3 2 6 3 2 2 2 2 1 1 2 3 3 5 5 4 3 1
9 7 7 8 8 7 8 6 4 4 4 3 5 6 12 16 17 17 16 14 13 11 7 7 7 7 3 4 2 3 2 3 1 1 3 3 4 4 5 5 5 5 5
9 8 8 8 7 6 6 7 11 7 6 4 7 7 8 17 16 16 16 16 15 12 7 9 12 5 5 6 2 1 2 2 2 1 2 3 4 4 6 6 7 7 6
10 9 7 8 9 7 5 4 5 5 4 3 5 8 9 10 14 14 14 15 13 12 11 12 9 8 7 4 4 3 1 1 1 1 2 1 2 5 8 8 9 8 9
11 11 9 11 10 9 7 6 6 5 5 5 4 5 5 5 7 13 12 13 14 13 12 12 12 8 8 4 6 5 5 4 4 2 2 2 2 1 2 6 10 11 13
Wind_Direction
155 154 150 145 141 137 131 125 122 124 126 123 120 116 112 111 111 113 107 108 112 101 98 94 91 89 89 90 91 89 88 85 82 80 75 73 73 72 67 52 54 58 63
146 151 150 145 140 137 136 132 127 126 127 126 123 119 115 113 113 119 109 97 100 103 98 95 92 94 92 92 92 92 91 92 86 80 78 75 72 73 76 73 62 58 55
144 148 149 145 141 138 135 132 131 132 135 132 126 121 113 114 112 103 119 114 99 106 103 98 96 94 94 94 94 93 94 88 79 72 71 70 70 72 74 69 67 62 56
145 148 149 146 142 138 136 134 129 130 135 129 123 116 117 119 115 97 110 104 102 98 99 102 100 96 94 95 99 95 91 85 78 73 74 68 68 69 73 77 72 67 68
147 148 148 143 140 139 137 133 128 123 122 122 121 112 126 117 122 99 101 98 115 105 106 107 104 101 96 92 106 102 97 88 81 81 77 64 71 75 72 77 80 75 66
148 150 148 145 143 142 140 135 132 130 130 125 115 118 126 122 118 114 112 108 111 113 117 114 109 104 94 92 102 102 92 84 86 82 79 72 73 77 82 84 83 83 79
148 150 149 147 147 145 144 139 137 133 128 121 120 124 117 124 121 118 116 112 113 119 123 119 115 102 95 97 97 83 86 86 87 83 79 73 77 71 72 61 54 90 75
149 150 151 149 149 147 144 141 139 135 131 129 128 123 115 123 125 123 121 111 104 117 117 117 105 100 95 92 91 86 81 88 87 84 83 80 70 75 77 60 52 60 58
153 154 153 152 151 149 146 143 141 138 136 134 131 125 117 123 125 124 123 108 97 110 109 107 103 98 95 95 93 84 87 85 85 85 83 75 74 71 75 62 56 55 61
155 158 153 152 151 151 145 143 141 139 137 134 132 125 123 124 119 123 123 110 101 101 104 102 103 99 99 98 97 99 95 84 84 81 79 89 76 74 72 63 65 52 51
159 159 156 150 152 151 151 147 142 141 136 134 132 131 127 128 121 115 123 119 109 106 105 104 100 101 100 97 98 99 88 87 89 82 78 79 77 76 66 61 71 57 49
162 161 158 155 153 149 148 151 145 140 139 139 139 136 134 130 125 123 124 125 119 116 107 100 101 112 101 99 93 85 87 94 89 84 87 86 79 75 74 68 67 64 62
162 160 163 157 153 148 148 145 143 140 138 138 140 139 136 132 126 123 117 116 122 117 114 106 103 103 104 104 94 88 88 86 88 89 84 91 90 90 80 76 68 66 58
162 158 160 153 151 150 145 147 147 144 143 144 145 144 142 135 128 130 130 126 119 130 114 111 108 108 104 99 100 95 89 91 92 86 83 81 81 79 75 76 80 79 64
158 158 156 152 154 148 152 148 150 147 146 147 147 153 151 147 140 136 133 127 126 132 125 116 114 119 116 107 98 94 90 83 78 73 89 83 79 78 95 85 73 75 72
161 160 151 156 154 151 149 156 152 154 149 147 149 156 157 154 148 144 140 134 132 137 132 130 122 125 122 123 110 102 97 93 80 78 88 75 81 86 80 75 68 66 62
166 154 156 155 154 153 155 155 153 158 153 157 157 158 160 158 157 151 148 144 140 130 134 124 112 112 127 124 120 119 118 106 89 77 69 67 75 65 73 63 79 71 59
154 159 160 160 159 152 155 158 153 156 158 160 163 162 162 163 163 158 157 156 148 138 144 134 127 119 128 143 141 142 135 120 104 85 76 69 74 69 69 69 58 50 67
168 164 167 165 164 161 156 158 156 165 163 164 162 164 168 164 166 164 165 163 155 142 149 143 129 132 142 140 138 134 109 145 129 131 115 96 81 79 81 67 57 54 70
175 174 170 167 173 169 159 158 153 162 169 166 170 172 173 168 164 156 158 161 165 156 152 153 142 114 140 141 127 111 55 155 75 154 156 155 141 135 105 90 56 46 50
67 158 166 166 174 163 164 157 158 165 159 168 176 178 179 177 161 158 158 159 166 161 151 150 132 131 124 143 129 124 98 44 42 131 200 189 170 167 158 134 96 90 53
85 78 105 130 146 154 159 162 153 167 178 171 176 182 179 169 166 165 165 171 172 158 161 163 146 129 112 178 138 124 169 194 192 194 247 235 232 202 193 181 177 185 184
62 53 80 90 110 125 141 131 114 113 108 141 171 173 187 180 176 176 176 173 172 175 181 177 169 158 141 189 219 141 148 213 205 192 211 219 223 228 232 227 215 209 204
48 50 59 68 88 89 127 140 157 169 158 174 172 182 178 189 185 183 184 176 175 178 177 189 186 175 156 169 198 166 70 125 171 175 217 240 231 234 234 235 232 229 232
44 46 49 63 61 55 79 127 136 132 118 129 154 159 173 177 187 188 185 185 178 185 190 191 187 194 187 158 167 155 143 111 120 168 255 218 246 238 236 233 234 237 233
40 43 46 53 48 41 61 69 97 119 129 132 123 148 165 171 177 191 185 193 192 191 187 189 192 194 195 172 185 178 179 168 195 164 188 204 244 241 252 235 237 238 237